SCP
0 0 -0 0 0 0 0 0 0 0 0 0 0 0 0 0 0 0 0 0 0 0 0 0 0 0 0 0 0 0 0 0 0 0 0 0 0 0
0 0 0 0 0 0 0 0 0 0 0 0 0 0 0 0 0 0 0 0 0 -0 -0 -0 0 0 0 0 0 0 0 0 0 0 0 0 0 0
0 0 0 0 0 0 0 0 0 0 0 0 0 0 0 0 0 0 0 0 0 0 0 0 0 0 0 0 0 0 0 0 0 0 0 0 0 0
0 0 0 0 0 0 0 0 0 0 0 0 0 0 0 0 0 0 0 0 -0 0 0 0 0 0 0 0 0 0 0 0 0 0 0 0 0 0
0 0 0 0 0 0 0 0 0 0 0 0 0 0 0 0 0 0 0 0 0 0 -0 -0 0 0 0 0 0 0 0 0 0 0 0 0 0 0
0 0 0 0 0 0 0 0 0 0 0 0 0 0 0 0 0 0 0 0 0 0 0 0 0 0 0 0 0 0 0 0 0 0 0 0 0 0
0 0 0 0 0 0 0 0 0 0 0 0 0 0 0 0 0 0 0 0 0 0 0 0 0 0 0 0 0 0 0 0 0 0 0 0 0 0
0 0 0 0 0 0 0 0 0 0 0 0 0 0 0 0 0 0 0 0 0 0 0 0 0 0 0 0 0 0 0 0 0 0 0 0 0 0
0 0 0 0 0 0 0 0 0 0 0 0 -0 0 0 0 0 0 0 0 0 0 0 0 0 0 0 0 0 0 0 0 0 0 0 0 0 0
0 0 0 0 0 0 0 0 0 0 0 0 0 0 0 0 0 0 0 0 0 0 0 0 0 0 0 0 0 0 0 0 0 0 0 0 0 0
0 0 0 0 0 0 0 0 0 0 0 0 0 0 0 0 0 0 0 0 0 0 0 0 0 0 0 0 0 0 0 0 0 0 0 0 0 0
0 0 0 0 0 0 0 0 0 0 0 0 0 0 0 0 0 0 0 0 0 0 0 0 0 0 0 0 0 0 0 0 0 0 0 0 0 0
0 0 0 0 0 0 0 0 0 0 0 0 0 0 0 0 0 0 0 0 0 0 0 0 0 0 0 0 0 0 0 0 0 0 0 0 0 0
0 0 0 0 0 0 0 0 0 0 0 0 0 0 0 0 0 0 0 0 0 0 0 0 0 0 0 0 0 0 0 0 0 0 0 0 0 0
0 0 0 0 0 0 0 0 0 0 0 0 0 0 0 0 0 0 0 0 0 0 0 0 0 0 0 0 0 0 0 0 0 0 0 0 0 0
0 0 0 0 0 0 0 0 0 0 0 0 0 0 0 0 0 0 0 0 0 0 0 0 0 0 0 0 0 0 0 0 0 0 0 0 0 0
0 0 0 0 0 0 0 0 0 0 0 0 0 0 0 0 0 0 0 0 0 0 0 0 0 0 0 0 0 0 0 0 0 0 0 0 0 0
-0 0 0 0 0 0 0 0 0 0 0 0 0 0 0 0 0 0 0 0 0 0 0 0 0 0 0 0 0 0 0 0 0 0 0 0 0 0
-0 0 0 0 0 0 -0 0 0 0 0 0 0 0 0 0 0 0 0 0 0 0 0 0 0 0 0 0 0 0 0 0 0 0 0 0 0 0
-0 0 0 0 -0 -0 0 0 0 0 0 0 0 0 0 0 0 0 0 -0 -0 0 0 0 0 0 0 0 0 0 0 0 0 0 0 0 0 0
0 0 0 0 0 0 0 0 0 0 0 0 0 0 0 0 0 0 0 0 0 0 0 0 0 0 0 0 0 0 0 0 0 0 0 0 0 0
0 0 0 0 0 0 0 0 0 0 0 0 0 0 0 0 0 0 0 0 0 0 0 0 0 0 0 0 0 0 0 0 0 0 0 0 0 0
0 0 -0 -0 -0 -0 -0 -0 0 0 0 0 0 0 0 0 0 0 0 0 0 0 0 0 0 0 0 0 0 0 0 0 0 0 0 0 0 0
Wind_Speed_500mb
33 35 47 43 40 34 42 45 51 52 43 47 62 59 46 42 51 57 65 53 45 48 48 53 54 52 45 47 52 51 45 44 34 26 23 20 17 16
18 26 34 36 34 28 31 37 36 38 36 43 44 38 36 39 39 40 49 55 58 45 53 61 63 58 54 52 53 55 48 49 43 34 27 25 23 20
8 5 4 9 14 16 13 14 24 28 30 36 41 40 38 34 33 31 36 33 46 48 39 33 43 44 44 46 48 53 50 51 51 41 30 30 28 24
15 13 11 9 11 12 13 15 18 22 20 28 29 26 29 31 35 34 31 41 45 49 44 37 39 41 39 40 45 45 47 49 53 47 36 34 32 28
28 23 20 14 12 11 12 18 20 18 21 27 35 30 27 21 27 30 33 30 45 41 44 45 38 35 36 37 41 44 43 46 55 52 43 36 35 30
39 38 35 30 25 19 19 18 14 15 15 18 20 19 16 13 16 21 24 39 49 45 46 44 36 35 32 34 40 40 37 45 55 56 49 39 37 34
37 35 39 36 30 25 16 17 17 13 10 11 14 14 13 11 9 15 19 17 29 41 42 35 32 32 32 35 37 34 27 36 50 56 52 45 40 38
37 31 24 25 30 29 33 27 19 16 12 14 14 21 18 10 8 11 13 16 15 20 26 29 30 34 32 31 33 36 31 32 44 54 55 50 45 40
30 33 25 22 21 19 27 37 34 31 28 25 21 23 26 23 17 10 11 7 4 7 15 24 27 31 29 29 26 26 22 28 36 49 57 55 52 46
23 30 24 26 25 22 19 20 19 17 22 23 26 33 35 35 31 24 22 21 22 19 15 16 14 16 13 12 14 17 16 14 20 26 43 53 55 53
20 22 26 29 20 17 16 16 19 23 26 31 35 34 35 39 43 37 31 24 25 23 13 17 22 20 19 18 15 12 11 17 22 26 30 43 51 55
24 25 29 30 31 27 26 29 31 37 43 46 40 33 30 30 31 43 42 36 27 22 11 11 16 20 19 21 22 22 19 14 11 11 18 41 45 52
34 32 32 33 35 37 39 36 38 36 46 51 45 35 28 27 25 28 31 44 43 37 25 28 28 22 27 20 30 32 27 28 26 25 24 25 34 50
41 42 44 44 47 47 46 46 45 54 57 46 36 34 33 29 14 14 15 26 35 42 38 42 41 32 36 33 32 31 27 26 25 31 29 26 30 37
47 51 55 54 53 51 48 54 62 60 50 39 35 33 32 25 24 25 24 23 12 14 19 26 29 34 41 36 38 34 27 27 26 33 39 40 38 39
40 40 41 44 47 49 48 50 45 34 29 33 34 27 20 22 24 26 29 30 27 21 18 25 30 36 42 41 36 32 29 32 34 37 41 42 40 40
33 27 28 25 25 21 20 21 21 23 24 23 26 29 30 30 28 30 30 31 28 28 27 29 32 31 34 35 36 33 38 42 44 42 40 43 47 45
30 27 26 27 30 32 33 32 30 30 32 32 32 29 29 30 32 33 36 37 38 38 37 33 35 41 45 45 42 41 46 45 45 50 48 50 54 58
26 28 29 32 33 34 39 37 37 39 39 40 40 39 37 35 36 42 43 45 44 42 41 38 34 34 36 40 37 33 27 24 33 39 38 42 46 51
29 31 32 33 38 39 37 35 36 37 39 41 40 37 36 36 41 42 42 44 47 45 43 37 32 33 39 40 39 37 34 30 28 30 31 36 42 44
26 29 28 30 36 37 36 36 34 33 35 33 31 30 33 39 43 40 43 46 54 52 51 48 39 37 46 49 51 46 39 34 36 39 40 41 41 45
23 26 32 38 41 39 34 34 37 37 35 32 35 38 41 43 45 46 44 47 50 52 55 54 46 42 43 43 50 49 53 48 40 40 44 42 43 40
20 22 31 40 43 43 43 41 38 36 32 36 38 33 35 38 35 36 38 41 47 53 53 55 56 51 54 56 61 58 56 55 53 45 48 44 44 44
Wind_Direction_500mb
269 255 274 281 273 266 270 265 266 270 272 270 281 275 284 288 279 253 246 259 259 246 256 245 253 249 246 249 254 255 253 253 254 261 254 247 236 228
279 271 278 276 270 271 269 269 261 260 268 280 285 286 278 282 285 281 280 275 250 237 244 258 247 248 252 247 248 252 249 247 246 249 248 242 236 226
299 263 311 298 280 274 271 277 270 264 266 273 273 276 278 277 279 284 266 253 232 239 242 244 248 255 248 244 249 249 245 242 240 241 245 242 237 230
305 298 312 330 343 326 311 307 307 302 292 284 281 277 276 281 274 263 241 243 211 220 223 226 241 252 247 247 251 251 238 237 235 236 240 237 238 234
296 302 317 318 294 300 309 316 315 312 297 285 288 284 282 277 270 266 241 243 235 236 223 229 238 234 242 239 250 249 235 233 231 230 234 237 234 234
297 296 296 295 304 316 308 295 298 305 303 296 288 301 290 266 270 265 252 240 245 246 241 242 243 237 243 243 244 233 232 228 224 225 229 234 234 234
327 300 289 285 286 284 326 313 274 278 307 307 305 330 7 15 284 270 263 251 240 238 239 235 231 245 251 251 253 246 228 226 221 223 227 231 235 233
334 329 321 289 279 283 277 297 312 300 288 301 324 318 329 350 12 344 291 263 253 241 243 244 246 249 250 249 250 245 236 227 223 223 226 230 233 234
333 333 324 315 311 308 291 283 291 294 296 302 298 297 304 320 313 308 320 321 261 242 258 249 241 247 253 251 252 253 252 242 226 224 227 228 233 234
324 336 332 316 314 312 297 296 309 301 299 305 299 288 284 286 299 288 275 285 279 284 267 258 223 219 232 234 226 232 236 249 214 225 236 234 236 236
298 308 316 331 322 323 324 313 300 297 298 303 303 294 286 276 266 271 275 273 279 278 263 250 250 252 251 247 237 221 220 225 236 247 235 231 233 238
279 287 296 311 316 306 307 314 311 311 313 309 303 298 291 280 273 260 260 267 267 275 253 256 251 236 242 230 232 241 230 213 246 271 241 242 243 249
303 290 291 298 303 308 307 312 315 317 320 316 310 307 308 303 281 267 263 258 257 258 248 278 280 265 235 228 210 202 227 255 259 263 265 247 248 230
304 306 301 294 294 295 296 300 302 309 316 314 313 307 310 322 282 266 280 275 255 258 257 260 267 240 240 241 228 237 246 249 266 267 261 251 250 241
298 293 290 291 289 290 290 294 301 306 307 303 303 309 317 312 310 302 301 307 296 286 264 250 255 251 238 250 254 248 248 260 264 252 258 263 263 262
319 313 304 297 290 291 293 295 299 305 310 300 294 293 305 310 300 309 313 310 306 283 276 280 253 250 248 250 251 250 260 261 275 260 261 267 268 265
336 342 346 354 348 353 338 327 321 325 315 322 319 307 302 303 297 294 292 301 307 302 286 267 270 262 255 255 255 267 270 270 270 273 266 267 271 274
334 341 349 339 334 334 334 331 330 316 311 314 313 305 305 298 291 288 292 297 300 298 290 286 277 274 272 270 274 274 272 272 259 258 258 263 269 273
360 6 3 1 356 354 350 344 330 321 314 309 306 308 304 296 293 288 290 294 292 291 289 279 274 275 273 275 279 277 279 265 252 257 259 258 265 269
12 18 14 9 9 2 354 343 338 333 324 319 317 312 310 306 299 294 291 292 288 287 284 282 275 267 271 281 288 272 268 269 263 258 264 274 267 267
15 8 3 9 2 349 344 342 340 332 326 321 324 324 311 302 301 303 299 290 286 285 284 278 272 269 267 268 269 268 267 267 264 273 279 281 282 273
18 24 17 4 355 349 339 330 326 326 325 320 318 315 310 307 305 300 294 289 283 281 280 280 276 270 264 268 269 268 264 266 267 267 270 272 272 272
5 14 6 2 359 356 352 344 337 335 327 311 311 311 317 320 320 316 307 298 294 293 288 279 273 265 260 261 259 262 262 265 268 270 266 263 267 269
Wind_Speed_850mb
33 35 47 43 40 34 42 45 51 52 43 47 62 59 46 42 51 57 65 53 45 48 48 53 54 52 45 47 52 51 45 44 34 26 23 20 17 16
18 26 34 36 34 28 31 37 36 38 36 43 44 38 36 39 39 40 49 55 58 45 53 61 63 58 54 52 53 55 48 49 43 34 27 25 23 20
8 5 4 9 14 16 13 14 24 28 30 36 41 40 38 34 33 31 36 33 46 48 39 33 43 44 44 46 48 53 50 51 51 41 30 30 28 24
15 13 11 9 11 12 13 15 18 22 20 28 29 26 29 31 35 34 31 41 45 49 44 37 39 41 39 40 45 45 47 49 53 47 36 34 32 28
28 23 20 14 12 11 12 18 20 18 21 27 35 30 27 21 27 30 33 30 45 41 44 45 38 35 36 37 41 44 43 46 55 52 43 36 35 30
39 38 35 30 25 19 19 18 14 15 15 18 20 19 16 13 16 21 24 39 49 45 46 44 36 35 32 34 40 40 37 45 55 56 49 39 37 34
37 35 39 36 30 25 16 17 17 13 10 11 14 14 13 11 9 15 19 17 29 41 42 35 32 32 32 35 37 34 27 36 50 56 52 45 40 38
37 31 24 25 30 29 33 27 19 16 12 14 14 21 18 10 8 11 13 16 15 20 26 29 30 34 32 31 33 36 31 32 44 54 55 50 45 40
30 33 25 22 21 19 27 37 34 31 28 25 21 23 26 23 17 10 11 7 4 7 15 24 27 31 29 29 26 26 22 28 36 49 57 55 52 46
23 30 24 26 25 22 19 20 19 17 22 23 26 33 35 35 31 24 22 21 22 19 15 16 14 16 13 12 14 17 16 14 20 26 43 53 55 53
20 22 26 29 20 17 16 16 19 23 26 31 35 34 35 39 43 37 31 24 25 23 13 17 22 20 19 18 15 12 11 17 22 26 30 43 51 55
24 25 29 30 31 27 26 29 31 37 43 46 40 33 30 30 31 43 42 36 27 22 11 11 16 20 19 21 22 22 19 14 11 11 18 41 45 52
34 32 32 33 35 37 39 36 38 36 46 51 45 35 28 27 25 28 31 44 43 37 25 28 28 22 27 20 30 32 27 28 26 25 24 25 34 50
41 42 44 44 47 47 46 46 45 54 57 46 36 34 33 29 14 14 15 26 35 42 38 42 41 32 36 33 32 31 27 26 25 31 29 26 30 37
47 51 55 54 53 51 48 54 62 60 50 39 35 33 32 25 24 25 24 23 12 14 19 26 29 34 41 36 38 34 27 27 26 33 39 40 38 39
40 40 41 44 47 49 48 50 45 34 29 33 34 27 20 22 24 26 29 30 27 21 18 25 30 36 42 41 36 32 29 32 34 37 41 42 40 40
33 27 28 25 25 21 20 21 21 23 24 23 26 29 30 30 28 30 30 31 28 28 27 29 32 31 34 35 36 33 38 42 44 42 40 43 47 45
30 27 26 27 30 32 33 32 30 30 32 32 32 29 29 30 32 33 36 37 38 38 37 33 35 41 45 45 42 41 46 45 45 50 48 50 54 58
26 28 29 32 33 34 39 37 37 39 39 40 40 39 37 35 36 42 43 45 44 42 41 38 34 34 36 40 37 33 27 24 33 39 38 42 46 51
29 31 32 33 38 39 37 35 36 37 39 41 40 37 36 36 41 42 42 44 47 45 43 37 32 33 39 40 39 37 34 30 28 30 31 36 42 44
26 29 28 30 36 37 36 36 34 33 35 33 31 30 33 39 43 40 43 46 54 52 51 48 39 37 46 49 51 46 39 34 36 39 40 41 41 45
23 26 32 38 41 39 34 34 37 37 35 32 35 38 41 43 45 46 44 47 50 52 55 54 46 42 43 43 50 49 53 48 40 40 44 42 43 40
20 22 31 40 43 43 43 41 38 36 32 36 38 33 35 38 35 36 38 41 47 53 53 55 56 51 54 56 61 58 56 55 53 45 48 44 44 44
Wind_Direction_850mb
269 255 274 281 273 266 270 265 266 270 272 270 281 275 284 288 279 253 246 259 259 246 256 245 253 249 246 249 254 255 253 253 254 261 254 247 236 228
279 271 278 276 270 271 269 269 261 260 268 280 285 286 278 282 285 281 280 275 250 237 244 258 247 248 252 247 248 252 249 247 246 249 248 242 236 226
299 263 311 298 280 274 271 277 270 264 266 273 273 276 278 277 279 284 266 253 232 239 242 244 248 255 248 244 249 249 245 242 240 241 245 242 237 230
305 298 312 330 343 326 311 307 307 302 292 284 281 277 276 281 274 263 241 243 211 220 223 226 241 252 247 247 251 251 238 237 235 236 240 237 238 234
296 302 317 318 294 300 309 316 315 312 297 285 288 284 282 277 270 266 241 243 235 236 223 229 238 234 242 239 250 249 235 233 231 230 234 237 234 234
297 296 296 295 304 316 308 295 298 305 303 296 288 301 290 266 270 265 252 240 245 246 241 242 243 237 243 243 244 233 232 228 224 225 229 234 234 234
327 300 289 285 286 284 326 313 274 278 307 307 305 330 7 15 284 270 263 251 240 238 239 235 231 245 251 251 253 246 228 226 221 223 227 231 235 233
334 329 321 289 279 283 277 297 312 300 288 301 324 318 329 350 12 344 291 263 253 241 243 244 246 249 250 249 250 245 236 227 223 223 226 230 233 234
333 333 324 315 311 308 291 283 291 294 296 302 298 297 304 320 313 308 320 321 261 242 258 249 241 247 253 251 252 253 252 242 226 224 227 228 233 234
324 336 332 316 314 312 297 296 309 301 299 305 299 288 284 286 299 288 275 285 279 284 267 258 223 219 232 234 226 232 236 249 214 225 236 234 236 236
298 308 316 331 322 323 324 313 300 297 298 303 303 294 286 276 266 271 275 273 279 278 263 250 250 252 251 247 237 221 220 225 236 247 235 231 233 238
279 287 296 311 316 306 307 314 311 311 313 309 303 298 291 280 273 260 260 267 267 275 253 256 251 236 242 230 232 241 230 213 246 271 241 242 243 249
303 290 291 298 303 308 307 312 315 317 320 316 310 307 308 303 281 267 263 258 257 258 248 278 280 265 235 228 210 202 227 255 259 263 265 247 248 230
304 306 301 294 294 295 296 300 302 309 316 314 313 307 310 322 282 266 280 275 255 258 257 260 267 240 240 241 228 237 246 249 266 267 261 251 250 241
298 293 290 291 289 290 290 294 301 306 307 303 303 309 317 312 310 302 301 307 296 286 264 250 255 251 238 250 254 248 248 260 264 252 258 263 263 262
319 313 304 297 290 291 293 295 299 305 310 300 294 293 305 310 300 309 313 310 306 283 276 280 253 250 248 250 251 250 260 261 275 260 261 267 268 265
336 342 346 354 348 353 338 327 321 325 315 322 319 307 302 303 297 294 292 301 307 302 286 267 270 262 255 255 255 267 270 270 270 273 266 267 271 274
334 341 349 339 334 334 334 331 330 316 311 314 313 305 305 298 291 288 292 297 300 298 290 286 277 274 272 270 274 274 272 272 259 258 258 263 269 273
360 6 3 1 356 354 350 344 330 321 314 309 306 308 304 296 293 288 290 294 292 291 289 279 274 275 273 275 279 277 279 265 252 257 259 258 265 269
12 18 14 9 9 2 354 343 338 333 324 319 317 312 310 306 299 294 291 292 288 287 284 282 275 267 271 281 288 272 268 269 263 258 264 274 267 267
15 8 3 9 2 349 344 342 340 332 326 321 324 324 311 302 301 303 299 290 286 285 284 278 272 269 267 268 269 268 267 267 264 273 279 281 282 273
18 24 17 4 355 349 339 330 326 326 325 320 318 315 310 307 305 300 294 289 283 281 280 280 276 270 264 268 269 268 264 266 267 267 270 272 272 272
5 14 6 2 359 356 352 344 337 335 327 311 311 311 317 320 320 316 307 298 294 293 288 279 273 265 260 261 259 262 262 265 268 270 266 263 267 269